STARLINK-1030, 44735

Orbit data source: Space-Track

STARLINK-1030, 44735 is a payload satellite owned by SpaceX/Seattle (US) in LEO that was launched on Mon, 11 Nov 2019 UTC via an FALCON 9 launch vehicle from the Air Force Eastern Test Range (AFETR). Payload-class satellites include a variety of spacecraft equipped with specific instruments for various scientific and technological missions. These include communications satellites like Starlink; space stations such as the ISS; scientific satellites like the Hubble; Earth observation satellites from companies like Planet Labs, Umbra, and HawkEye 360; GPS; miniature CubeSats for education and research; and military/defense satellites.

Loading next visibility...
Identifier
44735, 2019-074Y
Orbit
LEO
Last TLE update
9 hours ago
Origin
Manufacturer
SpaceX/Seattle
Mission
Partially operational Commercial Communications
Bus & Motor
STARLINK, Unknown motor
Mass
260 kg wet, ~248 kg dry
Launch date (UTC)
2019-11-11 (6 years ago)
Launch vehicle
FALCON 9
Launch site
Air Force Eastern Test Range (AFETR)
Object type
Payload
Rocket body
Debris
Shape & HBR
Box + 1 Pan, 8.86 m
Radar Cross Section
13.562 m², Large (>1 m²)

Expand to show TLE details & history

TLE from 9 hours ago
0 STARLINK-1030
1 44735U 19074Y   25173.25002315  .00171754  00000-0  15971-2 0  9990
2 44735  53.0538 283.8690 0007268 292.9742 246.2914 15.66334986309543
Epoch: 2025-06-22T06:00Z
TLE epoch observation values (Epoch: 2025-06-22T06:00:02Z)
Latitude
0.5703°
Longitude
102.75679°
Altitude
372.207 km
Speed
7.686 km/s
True Right ascension
06h 53m 46s
True Declination
0° 34' 00"
Sunlit
Object was in daylight at epoch
Visualization orbit readout
Latitude
45.8388°
Longitude
50.99242°
Altitude
378.766 km
Speed
7.686 km/s
Apparent Right ascension
09h 05m 21s
Apparent Declination
22° 17' 42"
Sunlit
Object is in daylight
Visualization observer readout
Local Sidereal Time
01:58:57
Azimuth
62.552° ENE
Elevation
2.334°
Doppler factor
1
Orbital elements
Apogee altitude
374.584 km
Perigee altitude
364.776 km
Semi-major axis
6,747.817 km
Eccentricity
0.00073
Inclination
53.0538°
RAAN
283.869°
Arg. of periapsis
292.9742°
True anomaly
Unknown
Mean anomaly
246.2914°
Eccentric anomaly
Unknown
Mean motion
3.9156 °/min
Orbital period
91.94 mins
BSTAR
0.0015971
Loading maneuver chart data...
Loading SW <> Apogee altitude chart data...

STARLINK-1030 Visibility forecast

Observer location: undefined°, undefined°

Span
Click to sort rows by Start time (UTC) header in descending order
Start Az.
Max El. time (UTC)
Max El. Az.
Max El.
End time (UTC)
End Az.
4 mins2025-06-22 16:26:15.718Z333.754° NNW2025-06-22 16:28:15.718Z36.218° NE29.626°2025-06-22 16:30:15.718Z94.652° ESE
4 mins2025-06-23 10:33:15.718Z270.127° WNW2025-06-23 10:34:15.718Z301.333° NW30.197°2025-06-23 10:37:15.718Z34.464° NE
|